Location: Anglesey
(53.1800°N, 4.2200°W)
Time: 16:53:46
(UTC+00:00)

Envisat - Visible Passes

Search period start: 24 February 2024 00:00
Search period end: 05 March 2024 00:00
Orbit: 762 x 764 km, 98.3° (Epoch: 24 February)

Date Brightness Start Highest point End Pass type
(mag) Time Alt. Az. Time Alt. Az. Time Alt. Az.
24 Feb 5.5 02:29:27 10° NE 02:31:29 16° ENE 02:31:29 16° ENE visible
24 Feb 3.2 04:07:20 10° NNE 04:11:39 64° N 04:11:39 64° N visible
24 Feb 4.4 05:47:23 10° N 05:50:46 18° NW 05:51:49 17° WNW visible
25 Feb 4.0 03:30:07 10° NNE 03:34:03 44° ENE 03:34:03 44° ENE visible
25 Feb 3.8 05:09:27 10° N 05:13:52 31° WNW 05:14:14 30° WNW visible
26 Feb 5.0 02:53:14 10° NE 02:56:28 25° ENE 02:56:28 25° ENE visible
26 Feb 3.1 04:31:50 10° N 04:36:38 56° WNW 04:36:38 56° WNW visible
26 Feb 4.8 06:12:36 10° NNW 06:14:47 13° NW 06:16:48 10° WNW visible
27 Feb 5.7 02:17:08 10° NE 02:18:52 13° ENE 02:18:52 13° ENE visible
27 Feb 3.2 03:54:26 10° NNE 03:59:02 70° NE 03:59:02 70° NE visible
27 Feb 4.3 05:34:13 10° N 05:38:01 22° NW 05:39:13 20° WNW visible
28 Feb 4.2 03:17:18 10° NNE 03:21:26 38° ENE 03:21:26 38° ENE visible
28 Feb 3.5 04:56:25 10° N 05:01:04 37° WNW 05:01:37 36° WNW visible
29 Feb 5.1 02:40:36 10° NE 02:43:51 21° E 02:43:51 21° E visible
29 Feb 2.9 04:18:53 10° NNE 04:23:57 69° WNW 04:24:01 69° WNW visible
29 Feb 4.7 05:59:13 10° NNW 06:02:05 15° NW 06:04:11 12° WNW visible
01 Mar 5.8 02:05:26 10° ENE 02:06:15 11° ENE 02:06:15 11° ENE visible
01 Mar 3.3 03:41:34 10° NNE 03:46:26 62° E 03:46:26 62° E visible
01 Mar 4.1 05:21:07 10° N 05:25:16 26° WNW 05:26:36 23° W visible
02 Mar 4.5 03:04:32 10° NNE 03:08:50 32° E 03:08:50 32° E visible
02 Mar 3.3 04:43:25 10° N 04:48:15 46° WNW 04:49:00 42° W visible
02 Mar 5.0 06:24:55 10° NNW 06:26:04 11° NW 06:27:13 10° WNW visible
03 Mar 5.3 02:28:05 10° NE 02:31:15 17° E 02:31:15 17° E visible
03 Mar 2.8 04:05:57 10° NNE 04:11:03 86° WNW 04:11:25 77° SW visible
03 Mar 4.5 05:45:58 10° N 05:49:22 18° NW 05:51:35 14° W visible
04 Mar 3.6 03:28:43 10° NNE 03:33:40 50° E 03:33:50 50° ESE visible
04 Mar 3.8 05:08:03 10° N 05:12:28 31° WNW 05:13:59 26° W visible
